Time,TemperatureF,DewpointF,PressureIn,WindDirection,WindDirectionDegrees,WindSpeedMPH,WindSpeedGustMPH,Humidity,HourlyPrecipIn,Conditions,Clouds,dailyrainin,SoftwareType,DateUTC
2013-12-16 00:22:00,10.0,4.0,29.94,WSW,249,7.0,-999.0,77,-99.99,,,-99.99,,2013-12-16 05:22:00,
2013-12-16 00:43:00,10.0,5.0,29.95,SW,222,6.0,-999.0,78,-99.99,,,-99.99,,2013-12-16 05:43:00,
2013-12-16 00:53:00,11.0,6.0,29.94,SW,218,7.0,-999.0,79,-99.99,,,-99.99,,2013-12-16 05:53:00,
2013-12-16 01:12:00,11.0,6.0,29.95,SW,217,7.0,-999.0,79,-99.99,,,-99.99,,2013-12-16 06:12:00,
2013-12-16 01:22:00,11.0,6.0,29.95,SW,219,7.0,-999.0,80,-99.99,,,-99.99,,2013-12-16 06:22:00,
2013-12-16 01:42:00,10.0,5.0,29.95,SW,229,7.0,-999.0,80,-99.99,,,-99.99,,2013-12-16 06:42:00,
2013-12-16 01:52:00,10.0,5.0,29.96,West,259,5.0,-999.0,81,-99.99,,,-99.99,,2013-12-16 06:52:00,
2013-12-16 02:22:00,11.0,7.0,29.97,West,263,7.0,-999.0,82,-99.99,,,-99.99,,2013-12-16 07:22:00,
2013-12-16 02:43:00,11.0,7.0,29.98,SW,224,8.0,-999.0,83,-99.99,,,-99.99,,2013-12-16 07:43:00,
2013-12-16 02:52:00,11.0,7.0,30.00,WSW,254,7.0,-999.0,83,-99.99,,,-99.99,,2013-12-16 07:52:00,
2013-12-16 03:22:00,11.0,7.0,30.01,WSW,253,6.0,-999.0,83,-99.99,,,-99.99,,2013-12-16 08:22:00,
2013-12-16 03:42:00,10.0,6.0,30.02,West,263,5.0,-999.0,84,-99.99,,,-99.99,,2013-12-16 08:42:00,
2013-12-16 03:52:00,9.0,5.0,30.03,WSW,254,5.0,-999.0,84,-99.99,,,-99.99,,2013-12-16 08:52:00,
2013-12-16 04:11:00,8.0,4.0,30.03,WSW,240,3.0,-999.0,85,-99.99,,,-99.99,,2013-12-16 09:11:00,
2013-12-16 04:22:00,8.0,5.0,30.04,WSW,250,5.0,-999.0,86,-99.99,,,-99.99,,2013-12-16 09:22:00,
2013-12-16 04:43:00,7.0,4.0,30.04,WSW,245,3.0,-999.0,86,-99.99,,,-99.99,,2013-12-16 09:43:00,
2013-12-16 04:53:00,7.0,4.0,30.04,WSW,253,2.0,-999.0,87,-99.99,,,-99.99,,2013-12-16 09:53:00,
2013-12-16 05:12:00,6.0,3.0,30.05,WSW,246,5.0,-999.0,88,-99.99,,,-99.99,,2013-12-16 10:12:00,
2013-12-16 05:23:00,6.0,3.0,30.05,West,259,4.0,-999.0,88,-99.99,,,-99.99,,2013-12-16 10:23:00,
2013-12-16 05:43:00,6.0,3.0,30.05,WSW,248,4.0,-999.0,89,-99.99,,,-99.99,,2013-12-16 10:43:00,
2013-12-16 05:52:00,5.0,2.0,30.05,WSW,238,2.0,-999.0,89,-99.99,,,-99.99,,2013-12-16 10:52:00,
2013-12-16 06:22:00,5.0,2.0,30.07,WSW,254,1.0,-999.0,89,-99.99,,,-99.99,,2013-12-16 11:22:00,
2013-12-16 06:42:00,4.0,2.0,30.08,WSW,254,1.0,-999.0,89,-99.99,,,-99.99,,2013-12-16 11:42:00,
2013-12-16 06:52:00,3.0,0.0,30.08,WSW,254,1.0,-999.0,88,-99.99,,,-99.99,,2013-12-16 11:52:00,
2013-12-16 07:12:00,3.0,1.0,30.08,WSW,254,1.0,-999.0,89,-99.99,,,-99.99,,2013-12-16 12:12:00,
2013-12-16 07:22:00,3.0,0.0,30.09,WSW,254,0.0,-999.0,88,-99.99,,,-99.99,,2013-12-16 12:22:00,
2013-12-16 07:42:00,2.0,-1.0,30.09,WSW,254,1.0,-999.0,88,-99.99,,,-99.99,,2013-12-16 12:42:00,
2013-12-16 07:52:00,1.0,-2.0,30.10,WSW,254,0.0,-999.0,87,-99.99,,,-99.99,,2013-12-16 12:52:00,
2013-12-16 08:11:00,1.0,-2.0,30.11,WSW,254,0.0,-999.0,88,-99.99,,,-99.99,,2013-12-16 13:11:00,
2013-12-16 08:22:00,1.0,-2.0,30.11,WSW,254,0.0,-999.0,88,-99.99,,,-99.99,,2013-12-16 13:22:00,
2013-12-16 08:42:00,2.0,-1.0,30.12,WSW,254,1.0,-999.0,88,-99.99,,,-99.99,,2013-12-16 13:42:00,
2013-12-16 08:52:00,2.0,-1.0,30.13,WSW,254,1.0,-999.0,88,-99.99,,,-99.99,,2013-12-16 13:52:00,
2013-12-16 09:12:00,2.0,-1.0,30.14,WSW,254,0.0,-999.0,88,-99.99,,,-99.99,,2013-12-16 14:12:00,
2013-12-16 09:22:00,3.0,1.0,30.15,WSW,254,0.0,-999.0,89,-99.99,,,-99.99,,2013-12-16 14:22:00,
2013-12-16 09:42:00,4.0,1.0,30.15,WSW,254,0.0,-999.0,88,-99.99,,,-99.99,,2013-12-16 14:42:00,
2013-12-16 09:52:00,5.0,2.0,30.16,WSW,254,0.0,-999.0,88,-99.99,,,-99.99,,2013-12-16 14:52:00,
2013-12-16 10:11:00,6.0,3.0,30.16,WSW,254,1.0,-999.0,89,-99.99,,,-99.99,,2013-12-16 15:11:00,
2013-12-16 10:22:00,7.0,4.0,30.17,WSW,254,1.0,-999.0,89,-99.99,,,-99.99,,2013-12-16 15:22:00,
2013-12-16 10:54:00,7.0,4.0,30.18,WSW,254,1.0,-999.0,86,-99.99,,,-99.99,,2013-12-16 15:54:00,
2013-12-16 11:23:00,9.0,6.0,30.19,WSW,254,1.0,-999.0,87,-99.99,,,-99.99,,2013-12-16 16:23:00,
2013-12-16 11:52:00,10.0,5.0,30.18,WSW,254,3.0,-999.0,80,-99.99,,,-99.99,,2013-12-16 16:52:00,
2013-12-16 12:22:00,11.0,6.0,30.15,ENE,59,5.0,-999.0,78,-99.99,,,-99.99,,2013-12-16 17:22:00,
2013-12-16 12:52:00,13.0,7.0,30.13,ESE,117,3.0,-999.0,78,-99.99,,,-99.99,,2013-12-16 17:52:00,
2013-12-16 13:12:00,14.0,8.0,30.13,SE,137,2.0,-999.0,77,-99.99,,,-99.99,,2013-12-16 18:12:00,
2013-12-16 13:22:00,14.0,8.0,30.13,ESE,110,2.0,-999.0,75,-99.99,,,-99.99,,2013-12-16 18:22:00,
2013-12-16 13:42:00,14.0,7.0,30.12,SE,129,2.0,-999.0,74,-99.99,,,-99.99,,2013-12-16 18:42:00,
2013-12-16 13:52:00,14.0,6.0,30.12,NE,49,2.0,-999.0,71,-99.99,,,-99.99,,2013-12-16 18:52:00,
2013-12-16 14:11:00,14.0,6.0,30.12,ENE,57,2.0,-999.0,71,-99.99,,,-99.99,,2013-12-16 19:11:00,
2013-12-16 14:22:00,14.0,5.0,30.12,NE,41,2.0,-999.0,68,-99.99,,,-99.99,,2013-12-16 19:22:00,
2013-12-16 14:42:00,14.0,5.0,30.12,SE,142,3.0,-999.0,67,-99.99,,,-99.99,,2013-12-16 19:42:00,
2013-12-16 14:52:00,14.0,5.0,30.11,ESE,119,2.0,-999.0,68,-99.99,,,-99.99,,2013-12-16 19:52:00,
2013-12-16 15:11:00,15.0,5.0,30.11,East,89,2.0,-999.0,65,-99.99,,,-99.99,,2013-12-16 20:11:00,
2013-12-16 15:22:00,15.0,6.0,30.11,ESE,120,2.0,-999.0,68,-99.99,,,-99.99,,2013-12-16 20:22:00,
2013-12-16 15:42:00,15.0,5.0,30.10,SE,129,2.0,-999.0,63,-99.99,,,-99.99,,2013-12-16 20:42:00,
2013-12-16 15:53:00,15.0,5.0,30.11,ESE,103,2.0,-999.0,64,-99.99,,,-99.99,,2013-12-16 20:53:00,
2013-12-16 16:22:00,15.0,6.0,30.11,ESE,114,2.0,-999.0,66,-99.99,,,-99.99,,2013-12-16 21:22:00,
2013-12-16 16:43:00,15.0,6.0,30.11,East,89,1.0,-999.0,68,-99.99,,,-99.99,,2013-12-16 21:43:00,
2013-12-16 16:54:00,15.0,7.0,30.11,East,90,0.0,-999.0,69,-99.99,,,-99.99,,2013-12-16 21:54:00,
2013-12-16 17:23:00,14.0,7.0,30.11,East,90,0.0,-999.0,73,-99.99,,,-99.99,,2013-12-16 22:23:00,
2013-12-16 17:43:00,13.0,6.0,30.11,East,90,0.0,-999.0,74,-99.99,,,-99.99,,2013-12-16 22:43:00,
2013-12-16 17:53:00,12.0,6.0,30.10,East,90,0.0,-999.0,75,-99.99,,,-99.99,,2013-12-16 22:53:00,
2013-12-16 18:12:00,11.0,6.0,30.08,East,90,0.0,-999.0,78,-99.99,,,-99.99,,2013-12-16 23:12:00,
2013-12-16 18:22:00,12.0,7.0,30.08,East,92,1.0,-999.0,80,-99.99,,,-99.99,,2013-12-16 23:22:00,
2013-12-16 18:42:00,12.0,7.0,30.09,East,92,0.0,-999.0,80,-99.99,,,-99.99,,2013-12-16 23:42:00,
2013-12-16 18:53:00,12.0,7.0,30.09,East,92,0.0,-999.0,79,-99.99,,,-99.99,,2013-12-16 23:53:00,
2013-12-16 19:11:00,10.0,5.0,30.09,East,92,0.0,-999.0,78,-99.99,,,-99.99,,2013-12-17 00:11:00,
2013-12-16 19:22:00,11.0,7.0,30.09,East,92,1.0,-999.0,82,-99.99,,,-99.99,,2013-12-17 00:22:00,
2013-12-16 19:42:00,13.0,8.0,30.09,East,92,0.0,-999.0,81,-99.99,,,-99.99,,2013-12-17 00:42:00,
2013-12-16 19:52:00,14.0,9.0,30.09,East,92,0.0,-999.0,80,-99.99,,,-99.99,,2013-12-17 00:52:00,
2013-12-16 20:11:00,14.0,9.0,30.09,East,92,0.0,-999.0,79,-99.99,,,-99.99,,2013-12-17 01:11:00,
2013-12-16 20:22:00,15.0,10.0,30.09,SE,126,1.0,-999.0,80,-99.99,,,-99.99,,2013-12-17 01:22:00,
2013-12-16 20:52:00,15.0,9.0,30.08,East,96,1.0,-999.0,78,-99.99,,,-99.99,,2013-12-17 01:52:00,
2013-12-16 21:11:00,15.0,9.0,30.08,ESE,113,1.0,-999.0,78,-99.99,,,-99.99,,2013-12-17 02:11:00,
2013-12-16 21:22:00,15.0,9.0,30.07,SE,133,1.0,-999.0,77,-99.99,,,-99.99,,2013-12-17 02:22:00,
2013-12-16 21:42:00,15.0,9.0,30.07,SSE,163,2.0,-999.0,75,-99.99,,,-99.99,,2013-12-17 02:42:00,
2013-12-16 21:52:00,15.0,8.0,30.06,SE,143,2.0,-999.0,73,-99.99,,,-99.99,,2013-12-17 02:52:00,
2013-12-16 22:22:00,15.0,8.0,30.05,SSE,150,5.0,-999.0,72,-99.99,,,-99.99,,2013-12-17 03:22:00,
2013-12-16 22:53:00,15.0,9.0,30.03,South,170,6.0,-999.0,75,-99.99,,,-99.99,,2013-12-17 03:53:00,
2013-12-16 23:13:00,16.0,9.0,30.02,SSE,157,6.0,-999.0,75,-99.99,,,-99.99,,2013-12-17 04:13:00,
2013-12-16 23:23:00,16.0,9.0,30.02,SE,128,6.0,-999.0,74,-99.99,,,-99.99,,2013-12-17 04:23:00,
2013-12-16 23:43:00,16.0,9.0,30.02,SSE,151,5.0,-999.0,74,-99.99,,,-99.99,,2013-12-17 04:43:00,
2013-12-16 23:53:00,16.0,9.0,30.02,SSE,147,4.0,-999.0,75,-99.99,,,-99.99,,2013-12-17 04:53:00,